VKG430 ESNZ-LGSA

Flight info

Callsign VKG430
Flight time 4h 6m
Altitude 33000
Route OSLAV DCT ETOMI DCT PELIT DCT GIMLO DCT LATVI DCT PENOR DCT ADOXO/N0450F350 DCT GOSAK N133 LENOV DCT KEKED DCT NARKA DCT ORA DCT BUXLE DCT LOMOS DCT NIKTI DCT KOROS/N0447F360 UG33 KEA/N0444F350 UL617 MIL UJ56 RESTI J56 RUSOS
Aircraft A321/M-SDE2E3FGHIJ1RWXYZ/LB2

Departure

Time 2026-05-07 13:49
Airport Åre Östersund Airport (ESNZ)

Arrival

Time 2026-05-07 17:55
Airport Chania International Airport (LGSA)
Time Latitude Longitude Altitude Speed Heading
2026-05-07 13:21 63.19789 14.49560 1292 ft 0 kts 81°
2026-05-07 13:44 63.19789 14.49564 1292 ft 1 kts 85°
2026-05-07 13:44 63.19769 14.49597 1291 ft 6 kts 163°
2026-05-07 13:44 63.19721 14.49638 1290 ft 8 kts 148°
2026-05-07 13:45 63.19682 14.49748 1288 ft 10 kts 117°
2026-05-07 13:45 63.19648 14.49909 1290 ft 13 kts 115°
2026-05-07 13:45 63.19608 14.50103 1284 ft 15 kts 114°
2026-05-07 13:45 63.19560 14.50333 1281 ft 18 kts 115°
2026-05-07 13:46 63.19505 14.50599 1278 ft 20 kts 115°
2026-05-07 13:46 63.19441 14.50903 1272 ft 23 kts 115°
2026-05-07 13:46 63.19370 14.51246 1270 ft 26 kts 115°
2026-05-07 13:46 63.19290 14.51623 1270 ft 28 kts 115°
2026-05-07 13:47 63.19209 14.52013 1255 ft 28 kts 114°
2026-05-07 13:47 63.19152 14.52293 1264 ft 17 kts 116°
2026-05-07 13:47 63.19070 14.52470 1255 ft 17 kts 156°
2026-05-07 13:47 63.18975 14.52464 1246 ft 10 kts 205°
2026-05-07 13:48 63.18973 14.52322 1247 ft 16 kts 294°
2026-05-07 13:48 63.19098 14.51719 1262 ft 77 kts 295°
2026-05-07 13:48 63.19412 14.50227 1283 ft 134 kts 294°
2026-05-07 13:48 63.19872 14.48088 1523 ft 159 kts 297°
2026-05-07 13:49 63.20329 14.45929 2406 ft 152 kts 294°
2026-05-07 13:49 63.20762 14.43807 3109 ft 152 kts 294°
2026-05-07 13:49 63.21208 14.41630 3455 ft 163 kts 294°
2026-05-07 13:49 63.21459 14.39084 3597 ft 181 kts 260°
2026-05-07 13:50 63.20784 14.36620 3767 ft 203 kts 218°
2026-05-07 13:50 63.19379 14.35538 3935 ft 227 kts 193°
2026-05-07 13:50 63.17727 14.34999 4071 ft 253 kts 190°
2026-05-07 13:50 63.15925 14.34567 4571 ft 265 kts 188°
2026-05-07 13:51 63.14077 14.34158 5326 ft 268 kts 188°
2026-05-07 13:51 63.12214 14.34371 6092 ft 273 kts 165°
2026-05-07 13:51 63.10577 14.36433 6812 ft 280 kts 139°
2026-05-07 13:51 63.09186 14.39474 7543 ft 283 kts 137°
2026-05-07 13:52 63.07791 14.42566 8277 ft 285 kts 136°
2026-05-07 13:52 63.06385 14.45681 8998 ft 288 kts 137°
2026-05-07 13:52 63.04962 14.48816 9723 ft 290 kts 137°
2026-05-07 13:52 63.03521 14.51972 10372 ft 296 kts 137°
2026-05-07 13:53 63.02003 14.55278 10540 ft 317 kts 137°
2026-05-07 13:53 63.00379 14.58809 10683 ft 339 kts 137°
2026-05-07 13:53 62.98660 14.62537 11067 ft 351 kts 137°
2026-05-07 13:53 62.96913 14.66337 11706 ft 355 kts 137°
2026-05-07 13:54 62.95148 14.70168 12390 ft 358 kts 137°
2026-05-07 13:54 62.93366 14.74026 13058 ft 362 kts 137°
2026-05-07 13:54 62.91563 14.77917 13740 ft 365 kts 137°
2026-05-07 13:54 62.89744 14.81829 14352 ft 368 kts 137°
2026-05-07 13:55 62.88530 14.84439 14704 ft 371 kts 137°
2026-05-07 13:55 62.86673 14.88426 15221 ft 376 kts 137°
2026-05-07 13:55 62.84792 14.92452 15726 ft 381 kts 137°
2026-05-07 13:55 62.82887 14.96532 16217 ft 386 kts 137°
2026-05-07 13:56 62.80956 15.00654 16702 ft 390 kts 137°
2026-05-07 13:56 62.78998 15.04823 17236 ft 395 kts 137°
2026-05-07 13:56 62.77021 15.09030 17750 ft 400 kts 137°
2026-05-07 13:56 62.74937 15.13095 18234 ft 403 kts 146°
2026-05-07 13:57 62.72545 15.16265 18664 ft 403 kts 158°
2026-05-07 13:57 62.69923 15.18362 19078 ft 401 kts 170°
2026-05-07 13:57 62.67182 15.19334 19494 ft 399 kts 180°
2026-05-07 13:57 62.64399 15.19826 19929 ft 403 kts 180°
2026-05-07 13:58 62.61598 15.20338 20357 ft 406 kts 180°
2026-05-07 13:58 62.58776 15.20870 20701 ft 410 kts 181°
2026-05-07 13:58 62.55920 15.21411 21102 ft 413 kts 181°
2026-05-07 13:58 62.53045 15.21949 21518 ft 417 kts 181°
2026-05-07 13:59 62.50145 15.22489 21931 ft 420 kts 181°
2026-05-07 13:59 62.47227 15.23027 22330 ft 423 kts 182°
2026-05-07 13:59 62.44290 15.23562 22713 ft 425 kts 182°
2026-05-07 13:59 62.41327 15.24106 23107 ft 428 kts 182°
2026-05-07 14:00 62.38346 15.24655 23491 ft 432 kts 182°
2026-05-07 14:00 62.35346 15.25207 23847 ft 435 kts 182°
2026-05-07 14:00 62.32321 15.25766 24170 ft 437 kts 182°
2026-05-07 14:00 62.29284 15.26329 24490 ft 439 kts 182°
2026-05-07 14:01 62.26229 15.26888 24736 ft 442 kts 183°
2026-05-07 14:01 62.23190 15.27432 25044 ft 445 kts 183°
2026-05-07 14:01 62.20098 15.27976 25347 ft 447 kts 183°
2026-05-07 14:01 62.16990 15.28529 25651 ft 450 kts 183°
2026-05-07 14:02 62.13861 15.29097 25951 ft 452 kts 183°
2026-05-07 14:02 62.10721 15.29676 26256 ft 455 kts 183°
2026-05-07 14:02 62.07560 15.30253 26563 ft 457 kts 183°
2026-05-07 14:02 62.04386 15.30826 26855 ft 459 kts 183°
2026-05-07 14:03 62.01203 15.31395 27167 ft 460 kts 183°
2026-05-07 14:03 61.98006 15.31956 27445 ft 462 kts 183°
2026-05-07 14:03 61.94791 15.32517 27650 ft 464 kts 184°
2026-05-07 14:03 61.91566 15.33084 27914 ft 466 kts 184°
2026-05-07 14:04 61.88328 15.33659 28158 ft 468 kts 184°
2026-05-07 14:04 61.85071 15.34240 28416 ft 470 kts 184°
2026-05-07 14:04 61.81804 15.34822 28684 ft 472 kts 184°
2026-05-07 14:04 61.78519 15.35410 28926 ft 474 kts 184°
2026-05-07 14:05 61.75224 15.35997 29196 ft 476 kts 184°
2026-05-07 14:05 61.71927 15.36582 29550 ft 475 kts 184°
2026-05-07 14:05 61.68630 15.37134 29906 ft 474 kts 184°
2026-05-07 14:05 61.65343 15.37614 30173 ft 473 kts 185°
2026-05-07 14:06 61.62052 15.38049 30420 ft 473 kts 186°
2026-05-07 14:06 61.58766 15.38460 30688 ft 473 kts 186°
2026-05-07 14:06 61.55477 15.38868 30985 ft 473 kts 185°
2026-05-07 14:06 61.52199 15.39290 31288 ft 472 kts 185°
2026-05-07 14:07 61.48929 15.39728 31600 ft 471 kts 185°
2026-05-07 14:07 61.45660 15.40176 31891 ft 470 kts 185°
2026-05-07 14:07 61.42402 15.40628 32181 ft 469 kts 185°
2026-05-07 14:07 61.39149 15.41077 32482 ft 468 kts 185°
2026-05-07 14:08 61.35898 15.41521 32780 ft 467 kts 185°
2026-05-07 14:08 61.32653 15.41960 32986 ft 467 kts 185°
2026-05-07 14:08 61.29419 15.42393 33069 ft 464 kts 185°
2026-05-07 14:09 61.23004 15.43252 33076 ft 460 kts 185°
2026-05-07 14:09 61.16616 15.44097 33078 ft 460 kts 185°
2026-05-07 14:10 61.10232 15.44928 33079 ft 460 kts 184°
2026-05-07 14:10 61.03854 15.45785 33062 ft 460 kts 184°
2026-05-07 14:11 60.97477 15.46634 33084 ft 459 kts 185°
2026-05-07 14:11 60.91101 15.47464 33087 ft 459 kts 184°
2026-05-07 14:12 60.84774 15.48297 33086 ft 458 kts 184°
2026-05-07 14:12 60.78416 15.49123 33081 ft 458 kts 184°
2026-05-07 14:13 60.72056 15.49943 33081 ft 458 kts 184°
2026-05-07 14:13 60.65695 15.50775 33082 ft 458 kts 185°
2026-05-07 14:14 60.59343 15.51601 33083 ft 458 kts 184°
2026-05-07 14:14 60.52984 15.52424 33078 ft 458 kts 184°
2026-05-07 14:15 60.46621 15.53240 33084 ft 458 kts 184°
2026-05-07 14:15 60.40263 15.54047 33061 ft 457 kts 184°
2026-05-07 14:16 60.33922 15.54854 33079 ft 456 kts 184°
2026-05-07 14:16 60.27595 15.55662 33081 ft 455 kts 184°
2026-05-07 14:17 60.21306 15.56444 33074 ft 455 kts 184°
2026-05-07 14:17 60.14985 15.57222 33073 ft 455 kts 184°
2026-05-07 14:18 60.08663 15.58013 33060 ft 455 kts 184°
2026-05-07 14:18 60.02348 15.58796 33069 ft 454 kts 184°
2026-05-07 14:19 59.96044 15.59580 33069 ft 454 kts 184°
2026-05-07 14:19 59.89740 15.60361 33070 ft 454 kts 184°
2026-05-07 14:20 59.83441 15.61136 33068 ft 453 kts 184°
2026-05-07 14:20 59.77150 15.61912 33066 ft 453 kts 184°
2026-05-07 14:21 59.70862 15.62673 33080 ft 452 kts 184°
2026-05-07 14:21 59.64584 15.63433 33079 ft 452 kts 184°
2026-05-07 14:22 59.58311 15.64196 33076 ft 451 kts 184°
2026-05-07 14:22 59.52082 15.64957 33028 ft 451 kts 184°
2026-05-07 14:23 59.45815 15.65707 33041 ft 451 kts 183°
2026-05-07 14:23 59.39557 15.66457 33051 ft 451 kts 183°
2026-05-07 14:24 59.33293 15.67210 33057 ft 451 kts 183°
2026-05-07 14:24 59.27023 15.67950 33062 ft 451 kts 184°
2026-05-07 14:25 59.20753 15.68694 33035 ft 452 kts 181°
2026-05-07 14:25 59.14469 15.70534 33072 ft 458 kts 176°
2026-05-07 14:26 59.08177 15.72561 33075 ft 458 kts 176°
2026-05-07 14:26 59.01895 15.74582 33079 ft 458 kts 176°
2026-05-07 14:27 58.95612 15.76564 33066 ft 457 kts 177°
2026-05-07 14:27 58.89289 15.78542 33347 ft 462 kts 176°
2026-05-07 14:27 58.86118 15.79539 33610 ft 462 kts 176°
2026-05-07 14:28 58.82949 15.80536 33891 ft 461 kts 176°
2026-05-07 14:28 58.79777 15.81532 34141 ft 461 kts 176°
2026-05-07 14:28 58.76617 15.82523 34377 ft 461 kts 176°
2026-05-07 14:28 58.73456 15.83516 34609 ft 460 kts 176°
2026-05-07 14:29 58.70303 15.84512 34850 ft 459 kts 175°
2026-05-07 14:29 58.67158 15.85658 35033 ft 461 kts 173°
2026-05-07 14:29 58.64068 15.86959 35075 ft 461 kts 172°
2026-05-07 14:30 58.57837 15.89848 35084 ft 460 kts 171°
2026-05-07 14:30 58.51612 15.92711 35080 ft 460 kts 172°
2026-05-07 14:31 58.45378 15.95421 35078 ft 459 kts 172°
2026-05-07 14:31 58.39142 15.98075 35080 ft 459 kts 172°
2026-05-07 14:32 58.32906 16.00731 35068 ft 459 kts 172°
2026-05-07 14:32 58.26672 16.03393 35061 ft 460 kts 172°
2026-05-07 14:33 58.20428 16.06052 35069 ft 460 kts 172°
2026-05-07 14:33 58.14187 16.08702 35076 ft 460 kts 172°
2026-05-07 14:34 58.07949 16.11339 35067 ft 459 kts 172°
2026-05-07 14:34 58.01713 16.13981 35079 ft 459 kts 171°
2026-05-07 14:35 57.95486 16.16609 35087 ft 458 kts 171°
2026-05-07 14:35 57.89272 16.19214 35097 ft 457 kts 171°
2026-05-07 14:36 57.83111 16.21790 35102 ft 456 kts 171°
2026-05-07 14:36 57.76913 16.24365 35113 ft 456 kts 171°
2026-05-07 14:37 57.70722 16.26926 35114 ft 456 kts 171°
2026-05-07 14:37 57.61430 16.30756 35112 ft 455 kts 171°
2026-05-07 14:38 57.55242 16.33294 35118 ft 455 kts 171°
2026-05-07 14:38 57.49052 16.35834 35111 ft 455 kts 171°
2026-05-07 14:39 57.42870 16.38356 35100 ft 455 kts 171°
2026-05-07 14:39 57.36698 16.40859 35106 ft 453 kts 171°
2026-05-07 14:40 57.30548 16.43356 35123 ft 452 kts 171°
2026-05-07 14:40 57.24416 16.45834 35120 ft 451 kts 171°
2026-05-07 14:41 57.18298 16.48300 35113 ft 450 kts 171°
2026-05-07 14:41 57.12226 16.50733 35109 ft 449 kts 171°
2026-05-07 14:42 57.06116 16.53173 35103 ft 449 kts 171°
2026-05-07 14:42 57.00018 16.55611 35108 ft 449 kts 171°
2026-05-07 14:43 56.93914 16.58032 35114 ft 448 kts 171°
2026-05-07 14:43 56.87819 16.60444 35115 ft 448 kts 170°
2026-05-07 14:44 56.81754 16.63115 35118 ft 448 kts 168°
2026-05-07 14:44 56.75730 16.66013 35126 ft 447 kts 168°
2026-05-07 14:45 56.69722 16.68862 35128 ft 445 kts 169°
2026-05-07 14:45 56.63724 16.71614 35125 ft 445 kts 169°
2026-05-07 14:46 56.57727 16.74341 35123 ft 444 kts 169°
2026-05-07 14:46 56.51730 16.77068 35121 ft 444 kts 169°
2026-05-07 14:47 56.46752 16.79323 35118 ft 443 kts 169°
2026-05-07 14:47 56.40771 16.82036 35122 ft 443 kts 169°
2026-05-07 14:48 56.34795 16.84739 35124 ft 442 kts 169°
2026-05-07 14:48 56.28824 16.87423 35121 ft 442 kts 169°
2026-05-07 14:49 56.22854 16.90094 35122 ft 442 kts 169°
2026-05-07 14:49 56.16893 16.92757 35117 ft 441 kts 169°
2026-05-07 14:50 56.10945 16.95419 35124 ft 440 kts 169°
2026-05-07 14:50 56.05006 16.98061 35124 ft 439 kts 169°
2026-05-07 14:51 55.99073 17.00688 35122 ft 440 kts 169°
2026-05-07 14:51 55.93143 17.03312 35118 ft 439 kts 169°
2026-05-07 14:52 55.87220 17.05917 35117 ft 438 kts 169°
2026-05-07 14:52 55.81308 17.08526 35122 ft 437 kts 169°
2026-05-07 14:53 55.75406 17.11106 35117 ft 436 kts 169°
2026-05-07 14:53 55.69515 17.13668 35122 ft 435 kts 170°
2026-05-07 14:54 55.63656 17.16331 35122 ft 436 kts 164°
2026-05-07 14:54 55.58021 17.20363 35122 ft 437 kts 161°
2026-05-07 14:55 55.52408 17.24446 35122 ft 436 kts 161°
2026-05-07 14:55 55.46805 17.28497 35119 ft 435 kts 162°
2026-05-07 14:56 55.41203 17.32510 35109 ft 434 kts 162°
2026-05-07 14:56 55.35610 17.36515 35106 ft 434 kts 162°
2026-05-07 14:57 55.30025 17.40520 35097 ft 433 kts 162°
2026-05-07 14:57 55.24491 17.44468 35111 ft 431 kts 162°
2026-05-07 14:58 55.18940 17.48415 35117 ft 430 kts 162°
2026-05-07 14:58 55.13400 17.52340 35115 ft 429 kts 162°
2026-05-07 14:59 55.07865 17.56243 35107 ft 429 kts 162°
2026-05-07 14:59 55.02339 17.60132 35098 ft 428 kts 162°
2026-05-07 15:00 54.96809 17.64021 35091 ft 428 kts 162°
2026-05-07 15:00 54.91283 17.67890 35093 ft 428 kts 162°
2026-05-07 15:01 54.85764 17.71737 35090 ft 427 kts 162°
2026-05-07 15:01 54.80256 17.75573 35097 ft 426 kts 162°
2026-05-07 15:02 54.74758 17.79382 35094 ft 426 kts 162°
2026-05-07 15:02 54.69262 17.83183 35094 ft 425 kts 162°
2026-05-07 15:03 54.63766 17.86979 35093 ft 425 kts 162°
2026-05-07 15:03 54.58274 17.90769 35092 ft 425 kts 162°
2026-05-07 15:04 54.52782 17.94528 35078 ft 425 kts 163°
2026-05-07 15:04 54.47330 17.98251 35066 ft 424 kts 163°
2026-05-07 15:05 54.41855 18.02000 35065 ft 423 kts 163°
2026-05-07 15:05 54.36386 18.05714 35076 ft 422 kts 163°
2026-05-07 15:06 54.30925 18.09409 35082 ft 422 kts 163°
2026-05-07 15:06 54.25473 18.13101 35079 ft 421 kts 163°
2026-05-07 15:07 54.20029 18.16775 35077 ft 420 kts 163°
2026-05-07 15:07 54.14592 18.20424 35071 ft 420 kts 163°
2026-05-07 15:08 54.09160 18.24059 35061 ft 419 kts 163°
2026-05-07 15:08 54.03737 18.27684 35049 ft 418 kts 163°
2026-05-07 15:09 53.98313 18.31297 35055 ft 418 kts 163°
2026-05-07 15:09 53.92933 18.34876 35049 ft 418 kts 163°
2026-05-07 15:10 53.87520 18.38471 35050 ft 418 kts 163°
2026-05-07 15:10 53.82110 18.42060 35046 ft 417 kts 163°
2026-05-07 15:11 53.76704 18.45633 35042 ft 417 kts 163°
2026-05-07 15:11 53.71307 18.49176 35030 ft 416 kts 163°
2026-05-07 15:12 53.65912 18.52703 35015 ft 416 kts 164°
2026-05-07 15:12 53.60523 18.56229 35023 ft 415 kts 164°
2026-05-07 15:13 53.55145 18.59741 35026 ft 414 kts 164°
2026-05-07 15:13 53.49767 18.63231 35029 ft 414 kts 164°
2026-05-07 15:14 53.44392 18.66706 35029 ft 414 kts 164°
2026-05-07 15:14 53.39022 18.70179 35028 ft 414 kts 164°
2026-05-07 15:15 53.33655 18.73645 35026 ft 413 kts 164°
2026-05-07 15:15 53.28291 18.77103 35002 ft 413 kts 164°
2026-05-07 15:16 53.22927 18.80546 35007 ft 412 kts 164°
2026-05-07 15:16 53.17570 18.83957 35016 ft 412 kts 164°
2026-05-07 15:17 53.12226 18.87371 35023 ft 411 kts 164°
2026-05-07 15:17 53.06880 18.90773 35023 ft 411 kts 164°
2026-05-07 15:18 53.01571 18.94136 35020 ft 411 kts 164°
2026-05-07 15:18 52.96230 18.97524 35012 ft 411 kts 164°
2026-05-07 15:19 52.90855 19.00917 35017 ft 410 kts 164°
2026-05-07 15:19 52.85558 19.04247 35001 ft 410 kts 164°
2026-05-07 15:20 52.80237 19.07591 35011 ft 409 kts 164°
2026-05-07 15:20 52.74881 19.10945 35013 ft 408 kts 164°
2026-05-07 15:21 52.69605 19.14243 35015 ft 408 kts 164°
2026-05-07 15:21 52.64299 19.17555 35010 ft 407 kts 164°
2026-05-07 15:22 52.58992 19.20848 35010 ft 407 kts 164°
2026-05-07 15:22 52.53685 19.24142 35007 ft 408 kts 163°
2026-05-07 15:23 52.48385 19.27424 34981 ft 407 kts 164°
2026-05-07 15:23 52.43080 19.30694 34987 ft 407 kts 164°
2026-05-07 15:24 52.37776 19.33958 34985 ft 407 kts 163°
2026-05-07 15:24 52.32467 19.37212 34984 ft 407 kts 164°
2026-05-07 15:25 52.27160 19.40456 34993 ft 407 kts 163°
2026-05-07 15:25 52.21850 19.43696 34992 ft 407 kts 164°
2026-05-07 15:26 52.16542 19.46926 34990 ft 407 kts 164°
2026-05-07 15:26 52.11230 19.50147 35000 ft 407 kts 164°
2026-05-07 15:27 52.05886 19.53213 34993 ft 407 kts 166°
2026-05-07 15:27 52.00500 19.56023 34990 ft 406 kts 166°
2026-05-07 15:28 51.95106 19.58802 34988 ft 407 kts 166°
2026-05-07 15:28 51.89722 19.61634 34986 ft 407 kts 166°
2026-05-07 15:29 51.84344 19.64490 34982 ft 407 kts 166°
2026-05-07 15:29 51.78964 19.67347 34981 ft 407 kts 166°
2026-05-07 15:30 51.73582 19.70182 34993 ft 407 kts 166°
2026-05-07 15:30 51.68197 19.73003 34958 ft 407 kts 166°
2026-05-07 15:31 51.62805 19.75826 34963 ft 407 kts 166°
2026-05-07 15:31 51.57416 19.78647 34969 ft 407 kts 166°
2026-05-07 15:32 51.52020 19.81457 34972 ft 408 kts 166°
2026-05-07 15:32 51.46630 19.84254 34975 ft 407 kts 166°
2026-05-07 15:33 51.41236 19.87042 34974 ft 407 kts 166°
2026-05-07 15:33 51.35841 19.89832 34976 ft 407 kts 166°
2026-05-07 15:34 51.30456 19.92620 34968 ft 407 kts 166°
2026-05-07 15:34 51.25102 19.95372 34945 ft 407 kts 167°
2026-05-07 15:35 51.19707 19.98134 34951 ft 407 kts 167°
2026-05-07 15:35 51.14313 20.00900 34957 ft 407 kts 167°
2026-05-07 15:36 51.08914 20.03657 34959 ft 407 kts 167°
2026-05-07 15:36 51.04389 20.05966 34961 ft 408 kts 167°
2026-05-07 15:37 50.99017 20.08700 34967 ft 408 kts 167°
2026-05-07 15:37 50.93611 20.11435 34968 ft 408 kts 167°
2026-05-07 15:38 50.88210 20.14166 34935 ft 407 kts 167°
2026-05-07 15:38 50.82809 20.16895 34940 ft 408 kts 167°
2026-05-07 15:39 50.77391 20.19624 34946 ft 409 kts 167°
2026-05-07 15:39 50.71974 20.22345 34942 ft 408 kts 167°
2026-05-07 15:40 50.66555 20.25058 34946 ft 409 kts 167°
2026-05-07 15:40 50.61128 20.27767 34947 ft 409 kts 167°
2026-05-07 15:41 50.55696 20.30476 34948 ft 410 kts 167°
2026-05-07 15:41 50.50270 20.33507 34960 ft 412 kts 164°
2026-05-07 15:42 50.44962 20.36762 34944 ft 414 kts 164°
2026-05-07 15:42 50.39593 20.40023 34950 ft 414 kts 164°
2026-05-07 15:43 50.34204 20.43207 34953 ft 414 kts 165°
2026-05-07 15:43 50.28813 20.46365 34957 ft 414 kts 165°
2026-05-07 15:44 50.23420 20.49512 34966 ft 414 kts 165°
2026-05-07 15:44 50.18028 20.52655 34962 ft 414 kts 165°
2026-05-07 15:45 50.12637 20.55799 34947 ft 414 kts 165°
2026-05-07 15:45 50.07249 20.58941 34949 ft 413 kts 165°
2026-05-07 15:46 49.99166 20.63631 34962 ft 413 kts 165°
2026-05-07 15:47 49.93773 20.66760 34963 ft 413 kts 165°
2026-05-07 15:47 49.88380 20.69873 34967 ft 413 kts 165°
2026-05-07 15:48 49.82983 20.72961 34973 ft 413 kts 165°
2026-05-07 15:48 49.77585 20.76051 34975 ft 414 kts 165°
2026-05-07 15:49 49.72228 20.79123 34953 ft 414 kts 165°
2026-05-07 15:49 49.66827 20.82218 34955 ft 414 kts 165°
2026-05-07 15:50 49.61415 20.85308 34961 ft 415 kts 165°
2026-05-07 15:50 49.56000 20.88383 34969 ft 415 kts 165°
2026-05-07 15:51 49.50580 20.91451 34986 ft 415 kts 165°
2026-05-07 15:51 49.45156 20.94520 34983 ft 415 kts 165°
2026-05-07 15:52 49.39737 20.97587 34954 ft 415 kts 165°
2026-05-07 15:52 49.34311 21.00639 34955 ft 415 kts 167°
2026-05-07 15:53 49.28745 21.02748 34952 ft 412 kts 172°
2026-05-07 15:53 49.23158 21.04692 34958 ft 412 kts 172°
2026-05-07 15:54 49.17563 21.06641 34967 ft 412 kts 172°
2026-05-07 15:54 49.11973 21.08592 34967 ft 412 kts 172°
2026-05-07 15:55 49.06380 21.10536 34970 ft 412 kts 172°
2026-05-07 15:55 49.00790 21.12478 34969 ft 412 kts 172°
2026-05-07 15:56 48.95196 21.14428 34944 ft 413 kts 172°
2026-05-07 15:56 48.89626 21.16348 34950 ft 414 kts 172°
2026-05-07 15:57 48.84008 21.18278 34956 ft 414 kts 172°
2026-05-07 15:57 48.78386 21.20213 34959 ft 414 kts 172°
2026-05-07 15:58 48.72765 21.22148 34966 ft 415 kts 172°
2026-05-07 15:58 48.67143 21.24077 34969 ft 414 kts 172°
2026-05-07 15:59 48.61529 21.25988 34968 ft 414 kts 172°
2026-05-07 15:59 48.55910 21.27891 34942 ft 414 kts 172°
2026-05-07 16:00 48.50294 21.29886 34957 ft 417 kts 169°
2026-05-07 16:00 48.44717 21.32394 34964 ft 419 kts 167°
2026-05-07 16:01 48.39157 21.35086 34973 ft 420 kts 167°
2026-05-07 16:01 48.33585 21.37705 34975 ft 420 kts 167°
2026-05-07 16:02 48.27996 21.40245 34987 ft 419 kts 168°
2026-05-07 16:02 48.22441 21.42728 34990 ft 420 kts 168°
2026-05-07 16:03 48.16847 21.45241 34997 ft 420 kts 168°
2026-05-07 16:03 48.11255 21.47760 35000 ft 419 kts 168°
2026-05-07 16:04 48.05668 21.50279 35005 ft 419 kts 168°
2026-05-07 16:04 48.00080 21.52783 35008 ft 419 kts 168°
2026-05-07 16:05 47.94493 21.55280 35005 ft 419 kts 168°
2026-05-07 16:05 47.88902 21.57773 34991 ft 420 kts 168°
2026-05-07 16:06 47.83311 21.60264 34971 ft 419 kts 168°
2026-05-07 16:06 47.77717 21.62752 34998 ft 420 kts 168°
2026-05-07 16:07 47.72116 21.65242 35008 ft 421 kts 168°
2026-05-07 16:07 47.66541 21.67706 35000 ft 421 kts 168°
2026-05-07 16:08 47.60930 21.70184 34995 ft 421 kts 168°
2026-05-07 16:08 47.55319 21.72653 34993 ft 421 kts 168°
2026-05-07 16:09 47.49705 21.75125 34998 ft 421 kts 168°
2026-05-07 16:09 47.44108 21.77565 34984 ft 419 kts 168°
2026-05-07 16:10 47.38515 21.80011 34988 ft 419 kts 168°
2026-05-07 16:10 47.32922 21.82464 35008 ft 420 kts 168°
2026-05-07 16:11 47.27323 21.84911 35017 ft 420 kts 168°
2026-05-07 16:11 47.21724 21.87340 35016 ft 419 kts 168°
2026-05-07 16:12 47.16125 21.89762 35013 ft 419 kts 168°
2026-05-07 16:12 47.10524 21.92188 35004 ft 420 kts 168°
2026-05-07 16:13 47.04917 21.94616 35019 ft 419 kts 168°
2026-05-07 16:13 46.99317 21.97025 35027 ft 419 kts 168°
2026-05-07 16:14 46.93722 21.99412 35028 ft 419 kts 168°
2026-05-07 16:14 46.88127 22.01813 35023 ft 419 kts 168°
2026-05-07 16:15 46.82569 22.04194 35023 ft 419 kts 168°
2026-05-07 16:15 46.76968 22.06577 35027 ft 419 kts 168°
2026-05-07 16:16 46.71363 22.08957 35013 ft 420 kts 168°
2026-05-07 16:16 46.65748 22.11339 35021 ft 421 kts 168°
2026-05-07 16:17 46.60121 22.13724 35019 ft 421 kts 168°
2026-05-07 16:17 46.54491 22.16106 35029 ft 422 kts 168°
2026-05-07 16:18 46.48862 22.18471 35028 ft 421 kts 168°
2026-05-07 16:18 46.43238 22.20839 35010 ft 420 kts 168°
2026-05-07 16:19 46.37622 22.23206 35003 ft 421 kts 168°
2026-05-07 16:19 46.31986 22.25570 35006 ft 422 kts 168°
2026-05-07 16:20 46.26330 22.27931 35017 ft 424 kts 168°
2026-05-07 16:20 46.20665 22.30286 35015 ft 424 kts 168°
2026-05-07 16:21 46.14998 22.32644 35027 ft 423 kts 168°
2026-05-07 16:21 46.09343 22.35007 35033 ft 423 kts 168°
2026-05-07 16:22 46.03693 22.37350 35022 ft 423 kts 168°
2026-05-07 16:22 45.98025 22.39690 35013 ft 425 kts 168°
2026-05-07 16:23 45.92326 22.42041 35011 ft 426 kts 168°
2026-05-07 16:23 45.86624 22.44383 35027 ft 426 kts 168°
2026-05-07 16:24 45.80917 22.46720 35037 ft 427 kts 168°
2026-05-07 16:24 45.75244 22.49054 35039 ft 427 kts 168°
2026-05-07 16:25 45.69494 22.51415 35042 ft 426 kts 168°
2026-05-07 16:25 45.63831 22.53730 35049 ft 426 kts 168°
2026-05-07 16:26 45.58127 22.56055 35050 ft 426 kts 168°
2026-05-07 16:26 45.52423 22.58374 35060 ft 426 kts 168°
2026-05-07 16:27 45.46719 22.60684 35055 ft 426 kts 168°
2026-05-07 16:27 45.41979 22.62606 35063 ft 426 kts 168°
2026-05-07 16:28 45.36274 22.64915 35054 ft 426 kts 168°
2026-05-07 16:28 45.30577 22.67210 35077 ft 425 kts 168°
2026-05-07 16:29 45.24896 22.69492 35070 ft 424 kts 168°
2026-05-07 16:29 45.19222 22.71773 35075 ft 424 kts 168°
2026-05-07 16:30 45.13555 22.74041 35072 ft 423 kts 168°
2026-05-07 16:30 45.07894 22.76314 35072 ft 422 kts 168°
2026-05-07 16:31 45.02232 22.78580 35049 ft 423 kts 168°
2026-05-07 16:31 44.96566 22.80829 35047 ft 424 kts 168°
2026-05-07 16:32 44.90886 22.83085 35049 ft 424 kts 168°
2026-05-07 16:32 44.85201 22.85343 35047 ft 424 kts 168°
2026-05-07 16:33 44.79516 22.87594 35049 ft 424 kts 168°
2026-05-07 16:33 44.73870 22.89823 35048 ft 424 kts 168°
2026-05-07 16:34 44.68186 22.92062 35044 ft 424 kts 168°
2026-05-07 16:34 44.62501 22.94292 35045 ft 424 kts 168°
2026-05-07 16:35 44.56822 22.96528 35048 ft 424 kts 168°
2026-05-07 16:35 44.51147 22.98752 35050 ft 423 kts 168°
2026-05-07 16:36 44.45474 23.00986 35049 ft 423 kts 168°
2026-05-07 16:36 44.39797 23.03201 35047 ft 423 kts 168°
2026-05-07 16:37 44.34120 23.05407 35024 ft 424 kts 168°
2026-05-07 16:37 44.28421 23.07613 35028 ft 425 kts 168°
2026-05-07 16:38 44.22712 23.09821 35030 ft 426 kts 168°
2026-05-07 16:38 44.16994 23.12047 35033 ft 427 kts 168°
2026-05-07 16:39 44.11274 23.14261 35036 ft 427 kts 168°
2026-05-07 16:39 44.05549 23.16461 35037 ft 427 kts 168°
2026-05-07 16:40 43.99819 23.18668 35027 ft 428 kts 168°
2026-05-07 16:40 43.94072 23.20879 35022 ft 429 kts 168°
2026-05-07 16:41 43.88313 23.23086 35027 ft 430 kts 168°
2026-05-07 16:41 43.82543 23.25287 35032 ft 431 kts 168°
2026-05-07 16:42 43.76771 23.27545 35038 ft 432 kts 168°
2026-05-07 16:42 43.71040 23.29839 35032 ft 432 kts 168°
2026-05-07 16:43 43.65229 23.32145 35033 ft 432 kts 168°
2026-05-07 16:43 43.59487 23.34402 35039 ft 432 kts 168°
2026-05-07 16:44 43.53694 23.36671 35048 ft 433 kts 168°
2026-05-07 16:44 43.47900 23.38950 35052 ft 433 kts 167°
2026-05-07 16:45 43.42106 23.41212 35055 ft 433 kts 167°
2026-05-07 16:45 43.36312 23.43464 35059 ft 433 kts 168°
2026-05-07 16:46 43.30519 23.45718 35054 ft 433 kts 168°
2026-05-07 16:46 43.24727 23.47975 35064 ft 433 kts 167°
2026-05-07 16:47 43.18939 23.50224 35078 ft 432 kts 168°
2026-05-07 16:47 43.13152 23.52457 35084 ft 432 kts 167°
2026-05-07 16:48 43.07369 23.54693 35068 ft 432 kts 168°
2026-05-07 16:48 43.01584 23.56923 35074 ft 431 kts 168°
2026-05-07 16:49 42.95804 23.59146 35078 ft 432 kts 168°
2026-05-07 16:49 42.90020 23.61358 35080 ft 432 kts 168°
2026-05-07 16:50 42.84235 23.63574 35093 ft 431 kts 168°
2026-05-07 16:50 42.78464 23.65785 35092 ft 431 kts 168°
2026-05-07 16:51 42.72693 23.68000 35079 ft 431 kts 168°
2026-05-07 16:51 42.66916 23.70204 35092 ft 432 kts 168°
2026-05-07 16:52 42.61126 23.72407 35098 ft 432 kts 168°
2026-05-07 16:52 42.55342 23.74599 35101 ft 431 kts 168°
2026-05-07 16:53 42.49563 23.76782 35101 ft 431 kts 168°
2026-05-07 16:53 42.43786 23.78971 35085 ft 431 kts 168°
2026-05-07 16:54 42.38003 23.81156 35082 ft 432 kts 168°
2026-05-07 16:54 42.32197 23.83342 35088 ft 433 kts 168°
2026-05-07 16:55 42.26389 23.85518 35094 ft 433 kts 168°
2026-05-07 16:55 42.20619 23.87680 35102 ft 433 kts 168°
2026-05-07 16:56 42.14807 23.89862 35099 ft 433 kts 168°
2026-05-07 16:56 42.06093 23.93120 35096 ft 433 kts 168°
2026-05-07 16:57 42.00276 23.95279 35103 ft 434 kts 168°
2026-05-07 16:57 41.94458 23.97447 35111 ft 434 kts 168°
2026-05-07 16:58 41.88639 23.99615 35115 ft 434 kts 168°
2026-05-07 16:58 41.82818 24.01777 35107 ft 434 kts 168°
2026-05-07 16:59 41.76986 24.03929 35112 ft 435 kts 168°
2026-05-07 16:59 41.71148 24.06074 35118 ft 435 kts 168°
2026-05-07 17:00 41.65308 24.08228 35114 ft 435 kts 168°
2026-05-07 17:00 41.59459 24.10387 35111 ft 437 kts 168°
2026-05-07 17:01 41.53593 24.12542 35112 ft 437 kts 168°
2026-05-07 17:01 41.47673 24.14290 35104 ft 432 kts 181°
2026-05-07 17:02 41.41670 24.14592 35112 ft 432 kts 181°
2026-05-07 17:02 41.35667 24.14864 35107 ft 432 kts 182°
2026-05-07 17:03 41.29663 24.15131 35111 ft 432 kts 182°
2026-05-07 17:03 41.23653 24.15402 35107 ft 432 kts 181°
2026-05-07 17:04 41.17639 24.15674 35093 ft 433 kts 182°
2026-05-07 17:04 41.11618 24.15937 35089 ft 433 kts 182°
2026-05-07 17:05 41.05588 24.16204 35094 ft 433 kts 182°
2026-05-07 17:05 40.99554 24.16477 35080 ft 434 kts 183°
2026-05-07 17:06 40.93545 24.16750 35077 ft 436 kts 182°
2026-05-07 17:06 40.87465 24.17026 35085 ft 438 kts 182°
2026-05-07 17:07 40.81363 24.17304 35076 ft 439 kts 183°
2026-05-07 17:07 40.75250 24.17576 35086 ft 440 kts 183°
2026-05-07 17:08 40.69112 24.17842 35080 ft 442 kts 183°
2026-05-07 17:08 40.62949 24.18117 35086 ft 444 kts 183°
2026-05-07 17:09 40.56763 24.18395 35080 ft 446 kts 184°
2026-05-07 17:09 40.50536 24.18674 35082 ft 449 kts 184°
2026-05-07 17:10 40.44271 24.18953 35085 ft 451 kts 184°
2026-05-07 17:10 40.37984 24.19229 35075 ft 453 kts 184°
2026-05-07 17:11 40.31667 24.19504 35084 ft 456 kts 184°
2026-05-07 17:11 40.25313 24.19780 35089 ft 458 kts 184°
2026-05-07 17:12 40.18935 24.20071 35093 ft 459 kts 184°
2026-05-07 17:12 40.12548 24.20358 35096 ft 459 kts 185°
2026-05-07 17:13 40.06157 24.20634 35101 ft 460 kts 185°
2026-05-07 17:13 39.99759 24.20915 35083 ft 460 kts 185°
2026-05-07 17:14 39.93347 24.21197 35082 ft 462 kts 186°
2026-05-07 17:14 39.87987 24.21424 35085 ft 465 kts 185°
2026-05-07 17:15 39.81500 24.21702 35092 ft 467 kts 186°
2026-05-07 17:15 39.73923 24.22030 35081 ft 470 kts 186°
2026-05-07 17:16 39.68431 24.22267 35088 ft 473 kts 186°
2026-05-07 17:16 39.61839 24.22554 35092 ft 475 kts 186°
2026-05-07 17:17 39.55228 24.22839 35078 ft 476 kts 187°
2026-05-07 17:17 39.48589 24.23122 35085 ft 479 kts 187°
2026-05-07 17:18 39.41909 24.23409 35091 ft 481 kts 187°
2026-05-07 17:18 39.35205 24.23705 35092 ft 484 kts 188°
2026-05-07 17:19 39.28433 24.23997 35099 ft 488 kts 188°
2026-05-07 17:19 39.21636 24.24281 35104 ft 490 kts 188°
2026-05-07 17:20 39.14816 24.24573 35091 ft 490 kts 188°
2026-05-07 17:20 39.08000 24.24866 35096 ft 491 kts 188°
2026-05-07 17:21 39.01158 24.25159 35097 ft 492 kts 188°
2026-05-07 17:21 38.94360 24.25446 35078 ft 492 kts 189°
2026-05-07 17:22 38.87498 24.25739 35089 ft 494 kts 189°
2026-05-07 17:22 38.80615 24.26032 35096 ft 496 kts 189°
2026-05-07 17:23 38.73717 24.26321 35081 ft 496 kts 189°
2026-05-07 17:23 38.66805 24.26612 35090 ft 497 kts 189°
2026-05-07 17:24 38.59882 24.26904 35099 ft 498 kts 189°
2026-05-07 17:24 38.52966 24.27195 35111 ft 497 kts 189°
2026-05-07 17:25 38.46039 24.27482 35089 ft 498 kts 188°
2026-05-07 17:25 38.39099 24.27778 35107 ft 500 kts 188°
2026-05-07 17:26 38.32140 24.28071 35109 ft 500 kts 188°
2026-05-07 17:26 38.25184 24.28359 35099 ft 500 kts 188°
2026-05-07 17:27 38.18231 24.28641 35110 ft 500 kts 189°
2026-05-07 17:27 38.11288 24.28941 35113 ft 498 kts 188°
2026-05-07 17:28 38.04363 24.29227 35109 ft 498 kts 189°
2026-05-07 17:28 37.97416 24.29490 35117 ft 499 kts 188°
2026-05-07 17:29 37.90490 24.29787 35123 ft 501 kts 188°
2026-05-07 17:29 37.83512 24.30079 35134 ft 500 kts 189°
2026-05-07 17:30 37.76564 24.30373 35112 ft 499 kts 188°
2026-05-07 17:30 37.69641 24.30676 35105 ft 497 kts 188°
2026-05-07 17:31 37.62692 24.30945 35120 ft 501 kts 188°
2026-05-07 17:31 37.55732 24.31244 35145 ft 501 kts 188°
2026-05-07 17:32 37.48758 24.31527 35142 ft 503 kts 188°
2026-05-07 17:32 37.41789 24.31771 35153 ft 500 kts 188°
2026-05-07 17:33 37.34856 24.32037 35145 ft 498 kts 187°
2026-05-07 17:33 37.27941 24.32347 35145 ft 496 kts 187°
2026-05-07 17:34 37.21038 24.32656 35120 ft 496 kts 188°
2026-05-07 17:34 37.14124 24.32940 34863 ft 497 kts 189°
2026-05-07 17:35 37.10622 24.33067 33876 ft 510 kts 186°
2026-05-07 17:35 37.07092 24.33183 33301 ft 507 kts 186°
2026-05-07 17:35 37.03569 24.33318 32651 ft 507 kts 185°
2026-05-07 17:35 37.00045 24.33474 32020 ft 506 kts 186°
2026-05-07 17:36 36.96542 24.33602 31269 ft 500 kts 189°
2026-05-07 17:36 36.93127 24.33050 30327 ft 491 kts 202°
2026-05-07 17:36 36.89846 24.32020 29969 ft 482 kts 201°
2026-05-07 17:36 36.86460 24.31513 28717 ft 505 kts 186°
2026-05-07 17:37 36.82947 24.31554 28004 ft 498 kts 189°
2026-05-07 17:37 36.79575 24.31138 27680 ft 478 kts 195°
2026-05-07 17:37 36.76351 24.30368 27123 ft 469 kts 199°
2026-05-07 17:37 36.73205 24.29395 26568 ft 463 kts 200°
2026-05-07 17:38 36.70108 24.28389 26023 ft 458 kts 200°
2026-05-07 17:38 36.67023 24.27449 25484 ft 455 kts 198°
2026-05-07 17:38 36.63946 24.26614 24957 ft 451 kts 196°
2026-05-07 17:38 36.60872 24.25873 24446 ft 448 kts 195°
2026-05-07 17:39 36.57826 24.25198 23941 ft 443 kts 194°
2026-05-07 17:39 36.54795 24.24550 23385 ft 439 kts 193°
2026-05-07 17:39 36.51802 24.23905 22800 ft 435 kts 194°
2026-05-07 17:39 36.48840 24.23250 22236 ft 429 kts 194°
2026-05-07 17:40 36.45919 24.22588 21684 ft 424 kts 194°
2026-05-07 17:40 36.43035 24.21920 21144 ft 420 kts 194°
2026-05-07 17:40 36.40180 24.21254 20625 ft 415 kts 194°
2026-05-07 17:40 36.37361 24.20597 20097 ft 410 kts 194°
2026-05-07 17:41 36.34573 24.19951 19572 ft 405 kts 194°
2026-05-07 17:41 36.31858 24.19138 19038 ft 399 kts 199°
2026-05-07 17:41 36.29195 24.18223 18529 ft 395 kts 200°
2026-05-07 17:41 36.26573 24.17256 17982 ft 391 kts 201°
2026-05-07 17:42 36.24022 24.16283 17438 ft 387 kts 201°
2026-05-07 17:42 36.21427 24.15283 16894 ft 384 kts 200°
2026-05-07 17:42 36.18880 24.14307 16356 ft 381 kts 200°
2026-05-07 17:42 36.16385 24.13361 15850 ft 379 kts 200°
2026-05-07 17:43 36.13871 24.12423 15350 ft 376 kts 199°
2026-05-07 17:43 36.11368 24.11500 14843 ft 374 kts 199°
2026-05-07 17:43 36.08881 24.10584 14352 ft 372 kts 199°
2026-05-07 17:43 36.06406 24.09671 13877 ft 370 kts 199°
2026-05-07 17:44 36.03917 24.08754 13343 ft 367 kts 199°
2026-05-07 17:44 36.01481 24.07859 12825 ft 364 kts 198°
2026-05-07 17:44 35.99059 24.06967 12323 ft 362 kts 199°
2026-05-07 17:44 35.96661 24.06083 11847 ft 358 kts 199°
2026-05-07 17:45 35.94287 24.05208 11385 ft 354 kts 199°
2026-05-07 17:45 35.91933 24.04342 10911 ft 352 kts 199°
2026-05-07 17:45 35.89600 24.03485 10573 ft 345 kts 199°
2026-05-07 17:45 35.87343 24.02658 10448 ft 332 kts 199°
2026-05-07 17:46 35.85182 24.01869 10325 ft 315 kts 199°
2026-05-07 17:46 35.83147 24.01123 10153 ft 297 kts 199°
2026-05-07 17:46 35.81217 24.00353 9687 ft 288 kts 208°
2026-05-07 17:46 35.79619 23.98959 9130 ft 280 kts 224°
2026-05-07 17:47 35.78186 23.97347 8541 ft 278 kts 225°
2026-05-07 17:47 35.76777 23.95717 8021 ft 275 kts 225°
2026-05-07 17:47 35.75439 23.94154 7898 ft 256 kts 225°
2026-05-07 17:47 35.74195 23.92698 7627 ft 246 kts 225°
2026-05-07 17:48 35.72871 23.91363 7217 ft 241 kts 210°
2026-05-07 17:48 35.71294 23.90786 6729 ft 243 kts 183°
2026-05-07 17:48 35.69649 23.91013 6571 ft 233 kts 172°
2026-05-07 17:48 35.68064 23.91325 6268 ft 229 kts 172°
2026-05-07 17:49 35.66496 23.91630 5926 ft 227 kts 172°
2026-05-07 17:49 35.64951 23.91932 5522 ft 222 kts 172°
2026-05-07 17:49 35.63432 23.92229 4968 ft 221 kts 171°
2026-05-07 17:49 35.61941 23.92520 4646 ft 209 kts 171°
2026-05-07 17:50 35.60562 23.92791 4473 ft 194 kts 169°
2026-05-07 17:50 35.59313 23.93350 4219 ft 191 kts 148°
2026-05-07 17:50 35.58347 23.94433 3950 ft 189 kts 126°
2026-05-07 17:50 35.57815 23.95897 3689 ft 189 kts 102°
2026-05-07 17:51 35.57680 23.97487 3414 ft 185 kts 96°
2026-05-07 17:51 35.57564 23.99036 3149 ft 180 kts 96°
2026-05-07 17:51 35.57448 24.00552 2893 ft 176 kts 96°
2026-05-07 17:51 35.57323 24.02034 2644 ft 173 kts 100°
2026-05-07 17:52 35.56959 24.03423 2386 ft 170 kts 112°
2026-05-07 17:52 35.56518 24.04741 2134 ft 163 kts 112°
2026-05-07 17:52 35.56107 24.05981 1874 ft 152 kts 112°
2026-05-07 17:52 35.55716 24.07159 1617 ft 147 kts 112°
2026-05-07 17:53 35.55325 24.08310 1405 ft 145 kts 115°
2026-05-07 17:53 35.54958 24.09462 1200 ft 145 kts 110°
2026-05-07 17:53 35.54595 24.10612 987 ft 145 kts 113°
2026-05-07 17:53 35.54210 24.11752 812 ft 145 kts 111°
2026-05-07 17:54 35.53846 24.12907 621 ft 145 kts 112°
2026-05-07 17:54 35.53477 24.14039 500 ft 135 kts 111°
2026-05-07 17:54 35.53210 24.14860 490 ft 77 kts 112°
2026-05-07 17:54 35.53051 24.15349 486 ft 56 kts 111°
2026-05-07 17:55 35.52917 24.15765 494 ft 45 kts 111°
2026-05-07 17:55 35.52885 24.15915 492 ft 10 kts 65°
2026-05-07 17:55 35.52934 24.15953 497 ft 7 kts 23°
2026-05-07 17:55 35.52975 24.15972 495 ft 7 kts 19°
2026-05-07 17:56 35.53036 24.15952 488 ft 13 kts 306°
2026-05-07 17:56 35.53079 24.15822 494 ft 18 kts 291°
2026-05-07 17:56 35.53124 24.15682 489 ft 18 kts 291°
2026-05-07 17:56 35.53171 24.15541 490 ft 20 kts 292°
2026-05-07 17:57 35.53230 24.15358 494 ft 25 kts 291°
2026-05-07 17:57 35.53272 24.15228 489 ft 25 kts 292°
2026-05-07 17:57 35.53360 24.14960 494 ft 29 kts 292°
2026-05-07 17:57 35.53435 24.14730 497 ft 29 kts 291°
2026-05-07 17:58 35.53508 24.14502 488 ft 27 kts 291°
2026-05-07 17:58 35.53558 24.14356 493 ft 14 kts 308°
2026-05-07 17:58 35.53643 24.14359 494 ft 12 kts
2026-05-07 17:58 35.53697 24.14320 488 ft 8 kts 324°
2026-05-07 17:59 35.53738 24.14320 498 ft 5 kts 18°
2026-05-07 17:59 35.53763 24.14332 498 ft 2 kts 21°
2026-05-07 17:59 35.53775 24.14338 498 ft 0 kts 21°